Flag for Canada Weather past 2 weeks in Ottawa, Ontario, Canada

Now
28 °F

Clear.


Feels Like: 21 °F
Forecast: 34 / 64 °F
Wind: 7 mph from West

Location: Ottawa Int'L. Ont.

Current Time: May 23, 2015 at 5:39:24 AM

Latest Report: May 23, 2015 at 5:00 AM


Visibility: 15 mi

Pressure: 30.31 "Hg

Humidity: 74%

Dew point: 21 °F

Location of OttawaLocation

Historic Weather in Ottawa — Graph

°F

Ottawa temperature yesterday

Maximum temperature yesterday: 54 °F (at 12:00 AM)
Minimum temperature yesterday: 36 °F (at 11:47 PM)
Average temperature yesterday: 47 °F

Past Weeks' High & Low Weather Summary

 TemperatureHumidityPressure
High86 °F (May 8, 2:00 PM)100% (May 11, 1:51 AM)30.45 "Hg (May 11, 1:51 AM)
Low30 °F (May 23, 2:00 AM)22% (May 14, 3:00 PM)29.62 "Hg (May 12, 2:00 PM)
Average59 °F65%30.02 "Hg
* Reported May 8 4:00 AM — May 23 4:00 AM, Ottawa, Weather by CustomWeather, © 2015

Note: Actual official high and low records may vary slightly from our data, if they occured in-between our weather recording intervals... More about our weather records

Advertising

Ottawa weather history for previous 24 hours

 ConditionsComfort  
Time TempWeatherWind HumidityBarometerVisibility
4:00 AM
Sat, May 23
30 °FClear.5 mph75%30.29 "Hg15 mi
3:00 AM30 °FClear.7 mph75%30.28 "Hg15 mi
2:00 AM30 °FClear.8 mph75%30.27 "Hg15 mi
1:00 AM32 °FClear.8 mph69%30.26 "Hg15 mi
12:00 AM34 °FClear.6 mph65%30.25 "Hg15 mi
11:47 PM
Fri, May 22
36 °FClear.6 mph56%30.24 "Hg15 mi
11:00 PM39 °FClear.10 mph45%30.23 "Hg15 mi
10:00 PM39 °FClear.10 mph42%30.21 "Hg15 mi
9:00 PM41 °FPassing clouds.9 mph39%30.18 "Hg15 mi
8:00 PM43 °FPassing clouds.22 mph31%30.16 "Hg15 mi
7:00 PM46 °FPassing clouds.18 mph32%30.13 "Hg15 mi
6:00 PM48 °FScattered clouds.18 mph29%30.10 "Hg15 mi
5:00 PM50 °FScattered clouds.20 mph30%30.07 "Hg15 mi
4:00 PM50 °FScattered clouds.20 mph32%30.06 "Hg15 mi
3:00 PM52 °FPartly sunny.17 mph35%30.04 "Hg15 mi
2:00 PM52 °FPartly sunny.18 mph35%30.03 "Hg15 mi
1:00 PM52 °FScattered clouds.21 mph38%30.02 "Hg15 mi
12:00 PM48 °FPartly sunny.21 mph58%30.01 "Hg15 mi
11:00 AM50 °FPartly sunny.17 mph54%29.99 "Hg15 mi
10:00 AM48 °FPartly sunny.14 mph58%29.98 "Hg15 mi
9:00 AM48 °FPartly sunny.12 mph58%29.96 "Hg15 mi
8:00 AM46 °FPassing clouds.17 mph62%29.93 "Hg15 mi
7:00 AM45 °FPassing clouds.12 mph66%29.91 "Hg15 mi
6:00 AM43 °FPassing clouds.15 mph66%29.88 "Hg15 mi
5:00 AM45 °FPassing clouds.14 mph61%29.85 "Hg15 mi
Weather by CustomWeather, © 2015

See weather overviewHow to use our weather pages